Location: Del Amo
(33.8464°N, 118.2104°W)
Time: 05:14:48
(UTC+00:00)

CUBEBUG 2 - Visible Passes

Search period start: 23 May 2025 00:00
Search period end: 02 June 2025 00:00
Orbit: 556 x 641 km, 97.8° (Epoch: 22 May)

Date Brightness Start Highest point End Pass type
(mag) Time Alt. Az. Time Alt. Az. Time Alt. Az.
23 May ? 09:00:58 10° NE 09:02:24 15° ENE 09:02:24 15° ENE visible
23 May ? 10:35:48 10° N 10:39:07 29° WNW 10:39:07 29° WNW visible
24 May ? 09:11:07 10° NE 09:13:09 20° ENE 09:13:09 20° ENE visible
24 May ? 10:46:43 10° NNW 10:49:52 23° WNW 10:49:52 23° WNW visible
25 May ? 09:21:24 10° NE 09:23:54 26° ENE 09:23:54 26° ENE visible
25 May ? 10:57:46 10° NNW 11:00:33 17° WNW 11:00:37 17° WNW visible
26 May ? 09:31:47 10° NNE 09:34:39 33° ENE 09:34:39 33° ENE visible
26 May ? 11:09:05 10° NW 11:11:02 13° WNW 11:11:22 13° WNW visible
27 May ? 09:42:15 10° NNE 09:45:23 43° NE 09:45:23 43° NE visible
28 May ? 09:52:47 10° NNE 09:56:06 54° NNE 09:56:06 54° NNE visible
29 May ? 10:03:22 10° N 10:06:49 57° N 10:06:49 57° N visible
30 May ? 10:14:01 10° N 10:17:31 49° NW 10:17:31 49° NW visible
31 May ? 08:51:05 10° ENE 08:51:31 11° ENE 08:51:31 11° ENE visible
31 May ? 10:24:43 10° N 10:28:13 38° WNW 10:28:13 38° WNW visible
01 Jun ? 09:00:46 10° NE 09:02:12 15° ENE 09:02:12 15° ENE visible
01 Jun ? 10:35:30 10° N 10:38:55 29° WNW 10:38:55 29° WNW visible
